{"data":{"norad_id":57978,"intl_designator":"2023-151Q","name":"STARLINK-30511","alt_names":[],"object_type":"PAYLOAD","status":"ACTIVE","operator":null,"country":"US","launch_date":"2023-09-30","launch_site_code":"AFETR","launch_vehicle":null,"mission":null,"orbit_class":"UNKNOWN","rcs_meters":null,"size_class":null,"mass_kg":null,"dimensions":null,"purposes":["comms"],"wikipedia_slug":null,"has_3d_model":false,"image_url":null,"decayed_at":null,"tle_current":{"epoch":"2026-09-20T11:35:19.485888Z","epoch_age_seconds":139154,"freshness":"FRESH","line1":"1 57978U 23151Q   26263.48286442 -.00000160  00000+0  37169-5 0  9993","line2":"2 57978  43.0038 330.6721 0001398 276.0826  83.9866 15.27575821165386","mean_motion":15.27575821,"eccentricity":0.0001398,"inclination_deg":43.0038,"raan_deg":330.6721,"arg_perigee_deg":276.0826,"mean_anomaly_deg":83.9866,"bstar":3.7169e-6,"rev_number":16538,"period_min":94.267006599864,"perigee_km":482.10241393196,"apogee_km":484.02080506318,"semimajor_km":6861.1986094976,"source":"CELESTRAK","updated_at":"2026-09-21T09:00:33.751452Z"}}}